Regional Weather Roundup
Issued by NWS Upton, NY

Current Version | Previous Version | Text Only | Print | Product List | Glossary On
Versions: 1 2 3 4 5 6 7 8 9 10 11 12 13 14 15 16 17 18 19 20 21 22 23 24 25 26 27
000 ASUS41 KOKX 301204 RWROKX REGIONAL WEATHER ROUNDUP NATIONAL WEATHER SERVICE NEW YORK NY 800 AM EDT SAT APR 30 2016 NOTE: "FAIR" INDICATES FEW OR NO CLOUDS BELOW 12,000 FEET WITH NO SIGNIFICANT WEATHER AND/OR OBSTRUCTIONS TO VISIBILITY. NYZ071-072-176-178-NJZ106-104-301300- NEW YORK CITY METRO AREA CITY SKY/WX TMP DP RH WIND PRES REMARKS CENTRAL PARK CLOUDY 49 38 65 NE8 30.24S LAGUARDIA APRT CLOUDY 49 39 68 NE6 30.21S KENNEDY INTL CLOUDY 48 40 73 N9 30.23S NEWARK/LIBERTY CLOUDY 45 41 86 NE8 30.22R BRNX BOT. GARD N/A 46 37 71 NE3 30.23R TETERBORO CLOUDY 48 39 71 NE3 30.21S $$ NYZ177-179-078>081-301300- LONG ISLAND NEW YORK CITY SKY/WX TMP DP RH WIND PRES REMARKS FARMINGDALE CLOUDY 48 41 76 N9 30.22S ISLIP CLOUDY 48 40 73 N7 30.21R SHIRLEY MOSUNNY 49 40 71 N8 30.22R RIVERHEAD N/A 48 41 76 N6 30.22R WESTHAMPTON SUNNY 49 39 68 N8 30.23R EAST HAMPTON PTSUNNY 44 40 85 N5 30.20F MONTAUK POINT N/A 47 40 76 N9 30.23R $$ NYZ052-065-067-301300- HUDSON VALLEY CITY SKY/WX TMP DP RH WIND PRES REMARKS WHITE PLAINS PTSUNNY 46 41 82 CALM 30.21R NEWBURGH NOT AVBL MONTGOMERY CLOUDY 46 43 89 W6 30.21R POUGHKEEPSIE PTSUNNY 48 43 82 CALM 30.22R ALBANY CLOUDY 47 39 74 CALM 30.24R $$ NJZ001-105-106-008-010-013-015-019>022-104-301300- NEW JERSEY CITY SKY/WX TMP DP RH WIND PRES REMARKS NEWARK/LIBERTY CLOUDY 45 41 86 NE8 30.22R TETERBORO CLOUDY 48 39 71 NE3 30.21S CALDWELL CLOUDY 47 41 80 CALM 30.23R MORRISTOWN CLOUDY 46 39 76 CALM 30.22R SOMERVILLE CLOUDY 48 42 80 N5 30.21S SUSSEX CLOUDY 45 41 86 CALM 30.23R ANDOVER N/A 45 40 82 VRB3 30.22R TRENTON CLOUDY 47 41 80 NE5 30.21R MILLVILLE CLOUDY 48 43 82 NE10 30.20R ATLANTIC CITY CLOUDY 48 43 82 NE8 30.19R WRIGHTSTOWN CLOUDY 46 41 81 N6 30.19R TOMS RIVER CLOUDY 46 37 71 NE7 30.22R BELMAR CLOUDY 47 40 76 N7 30.22R $$ PAZ047>061-062-071-301300- EASTERN PENNSYLVANIA CITY SKY/WX TMP DP RH WIND PRES REMARKS PHILADELPHIA CLOUDY 50 38 63 NE10 30.22R ALLENTOWN CLOUDY 48 40 73 E5 30.22R SCRANTON CLOUDY 44 39 82 E3 30.20S $$ CTZ002-004>006-009-010-012-RIZ004-006-007-MAZ004-011-015-301300- SOUTHERN NEW ENGLAND IN CT CITY SKY/WX TMP DP RH WIND PRES REMARKS BRADLEY INTL PTSUNNY 47 40 76 CALM 30.21R HARTFORD PTSUNNY 48 40 73 CALM 30.22S DANBURY CLOUDY 46 41 82 CALM 30.22R WTRBRY/OXFORD PTSUNNY 45 27 49 MISG 30.23R BRIDGEPORT SUNNY 49 41 74 VRB5 30.22R MERIDEN CLOUDY 47 42 83 CALM 30.22S NEW HAVEN PTSUNNY 48 44 86 N6 30.22R CHESTER PTSUNNY 46 39 76 N3 30.21S GROTON PTSUNNY 48 43 82 N8 30.22S WILLIMANTIC CLOUDY 47 36 65 CALM 30.23R IN RI CITY SKY/WX TMP DP RH WIND PRES REMARKS PROVIDENCE PTSUNNY 49 35 58 W7 30.24R BLOCK ISLAND CLOUDY 46 39 76 NW8 30.24R WESTERLY CLOUDY 48 36 63 NW5 30.24R IN MA CITY SKY/WX TMP DP RH WIND PRES REMARKS BOSTON SUNNY 48 35 60 W7 30.24R WORCESTER CLOUDY 43 31 62 W10 30.21R WESTFIELD CLOUDY 47 39 74 S5 30.21R PROVINCETOWN SUNNY 47 31 53 N5 30.23R NANTUCKET SUNNY 49 35 58 E9 30.20R $$ ANZ330-335-338-340-345-350-353-355-301300- COASTAL MARINE OBSERVATIONS STATION/POSITION TIME SKY/WX TEMP WIND PRES VSBY WAVE AIR SEA DIR/SP/G HT/PER (UTC) (F) (DEG/KT/KT) (MB) (MI) (FT/S) NY HARB ENTRANCE 1050 47 51 40/ 10/ 12 1022.3 5/ 8 20S FIRE ISLAND 1050 47 48 30/ 12/ 14 1021.8 6/ 9 GREAT SOUTH BAY 1100 46 56 20/ 6/ 10 N/A 23 SSW MONTAUK P 1150 46 47 10/ 14/ 17 1022.0 6/ 8 15 E BARNEGAT LI 1122 50 N/A 7/10 HUDSON CANYON 1050 48 47 1020.6 7/ 8 KINGS POINT 1100 47 53 1022.9 EXECUTION ROCKS NOT AVBL CENTRAL LI SOUND 1100 47 20/ 6/ 6 N/A 0 EASTERN LI SOUND 1100 45 47 290/ 8/ 10 N/A ROBBINS REEF 1100 48 10/ 9/ 11 1022.4 $$ >>>>>>>>>>>>>>>>>>>>>>>>>>>> KEY <<<<<<<<<<<<<<<<<<<<<<<<<<< > < > SKY/WX - SKY CONDITION/PRESENT WEATHER < > TMP - TEMPERATURE IN FAHRENHEIT < > DP - DEWPOINT IN FAHRENHEIT < > RH - RELATIVE HUMIDITY IN PERCENT < > WIND - DIRECTION AND SPEED IN MPH < > PRES - MEAN SEA LEVEL PRESSURE IN INCHES OF HG < > WCI - WIND CHILL INDEX < > VSB - VISIBILITY IN MILES < > HX - HEAT INDEX < > TC - TEMPERATURE IN CELSIUS < > VRB - VARIABLE WIND DIRECTION < > < >>>>>>>>>>>>>>>>>>>>>>>>>>>> KEY <<<<<<<<<<<<<<<<<<<<<<<<<<<

USA.gov is the U.S. government's official web portal to all federal, state and local government web resources and services.